Location: Pasadena-CA
(34.1440°N, 118.1100°W)
Time: 23:06:44
(UTC-07:00)

Oscar 19 - Pass Details

Date: 05 July 2022
Orbit: 773 x 790 km, 98.8° (Epoch: 14 August)

Event Time Altitude Azimuth Distance (km) Brightness Sun altitude
Rises 03:02:25 0° 38° (NE) 3,252 15.2 -25.8°
Reaches altitude 10° 03:06:05 10° 65° (ENE) 2,320 13.8 -25.4°
Maximum altitude 03:08:26 13° 93° (E) 2,105 13.2 -25.1°
Drops below altitude 10° 03:10:46 10° 120° (ESE) 2,316 13.1 -24.8°
Enters shadow 03:12:27 - 135° (SE) 2,682 13.3 -24.6°
